Orbital Elements at Epoch 2459000.5 (2020-May-31.0) TDB
Reference: JPL 11 (heliocentric ecliptic J2000)
Element | Value | Uncertainty (1-sigma) | Units |
e | .9887475248616961 | 2.2543e-05 | |
a | 441.080956937434 | 0.88588 | au |
q | 4.963252501917748 | 2.5894e-05 | au |
i | 156.1102251409554 | 6.635e-05 | deg |
node | 172.0160441865017 | 4.5164e-05 | deg |
peri | 318.7232685695326 | 0.00051448 | deg |
M | .2245153241024964 | 0.00067676 | deg |
tp | 2456890.320609816243 (2014-Aug-20.82060982) | 0.0039147 | TDB |
period | 3383575.635662838 9263.73 | 10194 27.91 | d yr |
n | .0001063963211596647 | 3.2054e-07 | deg/d |
Q | 877.1986613729503 | 1.7618 | au |
|
| | Orbit Determination Parameters
Additional Information
|